sat.trackr.live / text

‹ back to catalog

STARLINK-34305

NORAD 65375 · 2025-190AA

PAYLOAD ACTIVE UNKNOWN

§ Identity

Operator
Country
US
Launch date
2025-08-28
Launch site
AFETR
Launch vehicle
Mass (kg)
RCS (m²)

Purposes: comms

External: N2YO · Heavens-Above · Gunter

§ Orbital elements

Epoch: 2026-09-20T22:02:32.278560Z

Period
93.85 min
Inclination
53.1577°
Eccentricity
0.0000759
Mean motion
15.34360598 rev/d
Perigee alt
462.3 km
Apogee alt
463.3 km
Semi-major
6,841.0 km
B*
4.4112e-4
RAAN
340.0776°
Arg perigee
98.4966°
Mean anomaly
261.6122°
Rev number
5,966

§ Raw data

STARLINK-343051 65375U 25190AA  26263.91842915  .00014538  00000+0  44112-3 0  99962 65375  53.1577 340.0776 0000759  98.4966 261.6122 15.34360598 59666

JSON: /api/v1/satellites/65375 · /tle

For live sub-satellite position, see the globe view (requires WebGL).

§ Visibility from observer

Set your observer location to see the next 7 days of passes ≥ 10°. The values pass through the URL so the page stays shareable.

No JS? Fill the form by hand. The geolocation button needs JavaScript.